Salida, CO

3:07 PM MDT on July 24, 2017 (GMT -0600)
Salida

Weather History for KANK - January, 2014

Change the Weather History Date:

Tuesday, January 21, 2014

  Actual Average (KGUC) Record (KGUC)
Temperature  
Mean Temperature 38 °F -  
Max Temperature 53 °F 23 °F 37 °F (2000)
Min Temperature 23 °F 0 °F -23 °F (2008)
Degree Days  
Heating Degree Days 27    
Moisture  
Dew Point -6 °F    
Average Humidity 21    
Maximum Humidity 46    
Minimum Humidity 5    
Precipitation  
Precipitation 0.00 in - - ()
Sea Level Pressure  
Sea Level Pressure 30.40 in    
Wind  
Wind Speed 13 mph (West)    
Max Wind Speed 24 mph    
Max Gust Speed 34 mph    
Visibility 10 miles    
Events      
Averages and records for this station are not official NWS values.
T = Trace of Precipitation, MM = Missing Value Source: NWS Daily Summary

Daily Weather History Graph

Daily Weather History Graph

Search for Another Location

Airport or City:

Trip Planner

Search our weather history database for the weather conditions in past years. The results will help you decide how hot, cold, wet, or windy it might be!

Date:

Astronomy

Jan. 21, 2014 Rise Set
Actual Time 7:17 AM MST 5:13 PM MST
Civil Twilight 6:48 AM MST 5:42 PM MST
Nautical Twilight 6:16 AM MST 6:14 PM MST
Astronomical Twilight 5:45 AM MST 6:46 PM MST
Moon 10:44 PM MST (1/21) 9:52 AM MST (1/21)
Length of Visible Light 10h 53m
Length of Day
9h 56m
Waning Gibbous, 74% of the Moon is Illuminated
Jan 21
Waning Gibbous
Jan 23
Last Quarter
Jan 30
New
Feb 6
First Quarter
Feb 14
Full

Hourly Weather History & Observations

Time (MST) Temp. Windchill Dew Point Humidity Pressure Visibility Wind Dir Wind Speed Gust Speed Precip Events Conditions
12:15 AM 28.9 °F 19.2 °F 5.0 °F 36% 30.53 in 10.0 mi NW 11.5 mph - N/A   Clear
12:35 AM 24.8 °F 16.1 °F 6.6 °F 46% 30.52 in 10.0 mi WNW 8.1 mph - N/A   Clear
12:55 AM 27.3 °F 17.1 °F 4.8 °F 38% 30.52 in 10.0 mi NW 11.5 mph - N/A   Clear
1:15 AM 27.5 °F 16.8 °F 3.9 °F 37% 30.51 in 10.0 mi NW 12.7 mph - N/A   Clear
1:35 AM 27.5 °F 16.8 °F 3.2 °F 35% 30.51 in 10.0 mi NNW 12.7 mph - N/A   Clear
1:55 AM 25.3 °F 16.0 °F 4.3 °F 41% 30.52 in 10.0 mi NW 9.2 mph - N/A   Clear
2:15 AM 26.4 °F 14.5 °F 3.0 °F 37% 30.52 in 10.0 mi NW 15.0 mph - N/A   Clear
2:35 AM 25.7 °F 15.1 °F 2.3 °F 37% 30.51 in 10.0 mi NNW 11.5 mph - N/A   Clear
2:55 AM 25.5 °F 12.4 °F 2.1 °F 37% 30.51 in 10.0 mi NNW 17.3 mph - N/A   Clear
3:15 AM 26.1 °F 15.0 °F 1.4 °F 35% 30.51 in 10.0 mi NNW 12.7 mph 17.3 mph N/A   Clear
3:35 AM 26.6 °F 15.2 °F 0.1 °F 32% 30.51 in 10.0 mi NW 13.8 mph - N/A   Clear
3:55 AM 25.7 °F 14.6 °F 0.1 °F 33% 30.51 in 10.0 mi NW 12.7 mph 18.4 mph N/A   Clear
4:15 AM 24.6 °F 12.2 °F -0.0 °F 34% 30.50 in 10.0 mi NNW 15.0 mph - N/A   Clear
4:35 AM 25.0 °F 13.6 °F -0.8 °F 33% 30.49 in 10.0 mi NNW 12.7 mph - N/A   Clear
4:55 AM 24.1 °F 12.5 °F -1.3 °F 33% 30.49 in 10.0 mi NNW 12.7 mph - N/A   Clear
5:15 AM 24.8 °F 12.9 °F -1.8 °F 31% 30.48 in 10.0 mi NNW 13.8 mph 20.7 mph N/A   Clear
5:35 AM 25.9 °F 13.8 °F -2.6 °F 29% 30.48 in 10.0 mi NNW 15.0 mph 23.0 mph N/A   Clear
5:55 AM 24.6 °F 12.2 °F -2.2 °F 31% 30.48 in 10.0 mi NNW 15.0 mph - N/A   Clear
6:15 AM 23.4 °F 10.1 °F -2.2 °F 33% 30.48 in 10.0 mi NNW 16.1 mph - N/A   Clear
6:35 AM 23.9 °F 10.3 °F -3.1 °F 31% 30.48 in 10.0 mi NW 17.3 mph - N/A   Clear
6:55 AM 24.4 °F 11.5 °F -3.6 °F 29% 30.48 in 10.0 mi NNW 16.1 mph - N/A   Clear
7:15 AM 24.6 °F 10.9 °F -4.2 °F 28% 30.48 in 10.0 mi NW 18.4 mph 21.9 mph N/A   Clear
7:35 AM 25.3 °F 13.6 °F -4.9 °F 27% 30.49 in 10.0 mi NNW 13.8 mph - N/A   Clear
7:55 AM 26.2 °F 15.8 °F -4.9 °F 26% 30.49 in 10.0 mi NW 11.5 mph 19.6 mph N/A   Clear
8:15 AM 28.8 °F 21.7 °F -5.1 °F 23% 30.49 in 10.0 mi NW 6.9 mph - N/A   Clear
8:35 AM 32.0 °F 24.8 °F 0.3 °F 26% 30.49 in 10.0 mi NNW 8.1 mph - N/A   Clear
8:55 AM 31.6 °F 23.7 °F -2.2 °F 23% 30.49 in 10.0 mi North 9.2 mph - N/A   Clear
9:15 AM 31.6 °F 22.6 °F -2.2 °F 23% 30.49 in 10.0 mi NNW 11.5 mph - N/A   Clear
9:35 AM 33.6 °F 26.8 °F -3.6 °F 20% 30.49 in 10.0 mi NW 8.1 mph - N/A   Clear
9:55 AM 37.4 °F 30.3 °F -2.0 °F 19% 30.48 in 10.0 mi North 10.4 mph - N/A   Clear
10:15 AM 39.4 °F 32.7 °F -6.0 °F 15% 30.47 in 10.0 mi NNW 10.4 mph - N/A   Clear
10:35 AM 42.3 °F 35.5 °F -4.5 °F 14% 30.47 in 10.0 mi NW 12.7 mph - N/A   Clear
10:55 AM 44.6 °F 40.2 °F -6.9 °F 11% 30.46 in 10.0 mi NW 8.1 mph - N/A   Clear
11:15 AM 48.4 °F - -10.1 °F 8% 30.44 in 10.0 mi SW 16.1 mph 25.3 mph N/A   Clear
11:35 AM 49.1 °F - -10.8 °F 8% 30.43 in 10.0 mi SSW 17.3 mph 25.3 mph N/A   Clear
11:55 AM 49.1 °F - -10.5 °F 8% 30.41 in 10.0 mi SSW 23.0 mph 31.1 mph N/A   Clear
12:15 PM 50.0 °F - -11.0 °F 8% 30.40 in 10.0 mi SW 18.4 mph 29.9 mph N/A   Clear
12:35 PM 51.4 °F - -11.7 °F 7% 30.38 in 10.0 mi SW 17.3 mph 27.6 mph N/A   Clear
12:55 PM 52.2 °F - -13.0 °F 6% 30.37 in 10.0 mi SW 16.1 mph 23.0 mph N/A   Clear
1:15 PM 52.7 °F - -14.8 °F 6% 30.35 in 10.0 mi SW 20.7 mph 31.1 mph N/A   Clear
1:35 PM 52.7 °F - -12.3 °F 7% 30.35 in 10.0 mi WSW 18.4 mph 26.5 mph N/A   Clear
1:55 PM 52.7 °F - -15.2 °F 6% 30.34 in 10.0 mi WSW 19.6 mph 27.6 mph N/A   Clear
2:15 PM 53.2 °F - -17.0 °F 5% 30.34 in 10.0 mi SW 17.3 mph 26.5 mph N/A   Clear
2:35 PM 52.2 °F - -15.5 °F 6% 30.34 in 10.0 mi SW 17.3 mph 26.5 mph N/A   Clear
2:55 PM 51.8 °F - -16.4 °F 6% 30.33 in 10.0 mi SSW 15.0 mph 24.2 mph N/A   Clear
3:15 PM 50.7 °F - -14.1 °F 6% 30.33 in 10.0 mi SSW 19.6 mph 26.5 mph N/A   Clear
3:35 PM 49.3 °F - -14.6 °F 7% 30.33 in 10.0 mi SSW 24.2 mph 31.1 mph N/A   Clear
3:55 PM 48.6 °F - -15.2 °F 7% 30.33 in 10.0 mi SSW 24.2 mph 34.5 mph N/A   Clear
4:15 PM 47.7 °F - -15.0 °F 7% 30.33 in 10.0 mi SSW 20.7 mph 27.6 mph N/A   Clear
4:35 PM 45.1 °F 37.1 °F -12.3 °F 9% 30.33 in 10.0 mi SW 20.7 mph 32.2 mph N/A   Clear
4:55 PM 43.2 °F 35.9 °F -11.7 °F 10% 30.33 in 10.0 mi SW 15.0 mph 25.3 mph N/A   Clear
5:15 PM 42.1 °F 34.9 °F -11.7 °F 10% 30.32 in 10.0 mi SSW 13.8 mph 24.2 mph N/A   Clear
5:35 PM 40.6 °F 31.2 °F -9.8 °F 12% 30.32 in 10.0 mi SW 20.7 mph 27.6 mph N/A   Clear
5:55 PM 40.5 °F 32.1 °F -10.1 °F 11% 30.32 in 10.0 mi WSW 16.1 mph 25.3 mph N/A   Clear
6:15 PM 39.4 °F 30.4 °F -8.5 °F 13% 30.31 in 10.0 mi SW 17.3 mph 26.5 mph N/A   Clear
6:35 PM 39.7 °F 31.5 °F -8.5 °F 13% 30.31 in 10.0 mi WSW 15.0 mph 27.6 mph N/A   Clear
6:55 PM 40.8 °F 32.9 °F -9.9 °F 11% 30.30 in 10.0 mi SW 15.0 mph 23.0 mph N/A   Clear
7:15 PM 41.0 °F 33.1 °F -9.8 °F 11% 30.30 in 10.0 mi SW 15.0 mph 21.9 mph N/A   Clear
7:35 PM 38.7 °F 31.4 °F -8.9 °F 13% 30.30 in 10.0 mi SW 11.5 mph - N/A   Clear
7:55 PM 36.0 °F 27.5 °F -5.8 °F 17% 30.29 in 10.0 mi SW 12.7 mph 17.3 mph N/A   Clear
8:15 PM 37.6 °F 30.0 °F -8.0 °F 14% 30.30 in 10.0 mi SW 11.5 mph 18.4 mph N/A   Clear
8:35 PM 35.4 °F 27.8 °F -4.5 °F 18% 30.30 in 10.0 mi WSW 10.4 mph - N/A   Clear
8:55 PM 33.6 °F 26.8 °F -4.9 °F 19% 30.29 in 10.0 mi WSW 8.1 mph - N/A   Clear
9:15 PM 32.9 °F - -4.5 °F 20% 30.30 in 10.0 mi Calm Calm - N/A   Clear
9:35 PM 32.2 °F 27.7 °F -6.0 °F 19% 30.29 in 10.0 mi WNW 4.6 mph - N/A   Clear
9:55 PM 33.8 °F 25.8 °F -6.9 °F 17% 30.29 in 10.0 mi West 10.4 mph - N/A   Clear
10:15 PM 32.0 °F 24.2 °F -6.9 °F 19% 30.29 in 10.0 mi WNW 9.2 mph - N/A   Clear
10:35 PM 30.9 °F 25.2 °F -6.9 °F 19% 30.29 in 10.0 mi SW 5.8 mph - N/A   Clear
10:55 PM 27.3 °F 23.4 °F -4.7 °F 25% 30.29 in 10.0 mi SSW 3.5 mph - N/A   Clear
11:15 PM 24.8 °F 19.1 °F -4.4 °F 28% 30.29 in 10.0 mi WNW 4.6 mph - N/A   Clear
11:35 PM 24.1 °F - -4.2 °F 29% 30.29 in 10.0 mi Calm Calm - N/A   Clear
11:55 PM 24.6 °F 20.3 °F -4.4 °F 28% 30.28 in 10.0 mi West 3.5 mph - N/A   Clear